Regional Weather Roundup
Issued by NWS Green Bay, WI

Home | Current Version | Previous Version | Graphics & Text | Print | Product List | Glossary Off
Versions: 1 2 3 4 5 6 7 8 9 10 11 12 13 14 15 16 17 18 19 20 21 22 23 24 25 26 27 28 29 30 31 32 33 34 35 36 37 38 39 40 41 42 43 44 45 46 47 48 49 50

180
ASUS43 KGRB 292111
RWRGRB

NORTH-CENTRAL AND NORTHEAST WISCONSIN REGIONAL WEATHER ROUNDUP
NATIONAL WEATHER SERVICE GREEN BAY WI
400 PM CDT MON MAY 29 2017

WIZ005-009-010>012-018-019-292200-
NORTH CENTRAL WISCONSIN

CITY           SKY/WX    TMP DP  RH WIND       PRES   REMARKS
IRONWOOD       CLOUDY    57  49  74 W16       29.69R
MANITOWISH WTR RAIN      54  54 100 W8        29.70S
ARBOR VITAE    CLOUDY    59  53  79 NW9       29.70S
EAGLE RIVER    PTSUNNY   59  44  57 W14G23    29.69S
LAND O LAKES   CLOUDY    56  52  84 W6        29.70S
RHINELANDER    CLOUDY    64  50  60 W17       29.72R
PHILLIPS       CLOUDY    63  47  55 W8G17     29.70S
ANTIGO         PTSUNNY   58  50  74 W16G23    29.73F
TOMAHAWK       CLOUDY    59  46  62 W13G23    29.72F
MERRILL        RAIN      57  48  71 W12G22    29.74R
$$

WIZ013-073-292200-
NORTHEAST WISCONSIN

CITY           SKY/WX    TMP DP  RH WIND       PRES   REMARKS
IRON MOUNTAIN  LGT RAIN  60  50  69 W8        29.66R
MARINETTE      NOT AVBL
OCONTO         PTSUNNY   67  48  51 SW22G28   29.71S
$$

WIZ017-030-035>037-045-292200-
CENTRAL WISCONSIN

CITY           SKY/WX    TMP DP  RH WIND       PRES   REMARKS
MEDFORD        LGT RAIN  56  46  68 W16G22    29.75R
WAUSAU         CLOUDY    64  47  53 W21G29    29.73S
MOSINEE        PTSUNNY   63  46  55 W18G28    29.76S
MARSHFIELD     RAIN      58  49  72 SW17G24   29.77R
WISC RAPIDS    PTSUNNY   59  51  75 W13       29.80R
STEVENS POINT  CLOUDY    57  47  71 W16G23    29.78R
WAUPACA        MOSUNNY   68  47  46 W16       29.77S
SHAWANO        CLOUDY    64  50  61 SW9G18    29.73S
CLINTONVILLE   PTSUNNY   61  50  67 W10       29.74F
WAUTOMA        PTSUNNY   68  46  45 MISG        N/A
$$

WIZ038-039-048-051-292200-
FOX VALLEY

CITY           SKY/WX    TMP DP  RH WIND       PRES   REMARKS
NWS GREEN BAY  PTSUNNY   61  50  67 NW20G32   29.76R
APPLETON       PTSUNNY   63  43  48 W20G30    29.76R
OSHKOSH        MOSUNNY   67  47  48 NW18      29.76F
FOND DU LAC    PTSUNNY   69  44  40 W20G28    29.77S
$$

WIZ022-050-052-292200-
EAST CENTRAL WISCONSIN

CITY           SKY/WX    TMP DP  RH WIND       PRES   REMARKS
EPHRAIM        MOCLDY   N/A N/A N/A SW12G26   29.69R
WASHINGTON ISL CLOUDY    60  50  70 SW10      29.67S
STURGEON BAY   PTSUNNY   64  47  53 W23G29    29.72R
MANITOWOC      CLOUDY    68  45  43 W22G28    29.76S
SHEBOYGAN      PTSUNNY   66  48  52 W18G24    29.77S
$$

LMZ563-521-522-541>543-292200-
LAKESHORE

STATION/POSITION TIME  TEMP    WIND        PRES    VSBY  WAVE
                       AIR SEA DIR/SP/G                  HT/PER
                 (UTC) (F)     (DEG/KT/KT) (MB)    (MI)  (FT/S)
SHEBOYGAN LKSHOR 2100   67     260/ 15/ 21 1007.6F
KEWAUNEE LKSHORE 2042   66     280/ 12/ 24 1006.7R
NORTHPORT PIER   2040   68     210/  6/ 19 1004.7S
N MID LAKE BUOY  2050   49 41  190/ 12/ 16 1006.3F         2/ 4
CHAMBERS ISLAND  2040   63     230/  8/ 21 1005.1R
MENOMINEE LKSHOR 2036          230/ 14/ 19 1004.7S
$$




USA.gov is the U.S. government's official web portal to all federal, state and local government web resources and services.